Home   Weather   Lappeenranta   Past weeks

Flag for Finland Past Weather in Lappeenranta, Finland — Yesterday and Last 2 Weeks

Now
54 °F

Sprinkles. Mostly cloudy.


Feels Like: 49 °F
Forecast: 47 / 53 °F
Wind: 17 mph from Southwest

Location: Lappeenranta

Current Time: Sep 30, 2016 at 2:48:45 PM

Latest Report: Sep 30, 2016 at 2:20 PM


Visibility: N/A

Pressure: 29.18 "Hg

Humidity: 82%

Dew Point: 48 °F

Location of LappeenrantaLocation

Past Weather in Lappeenranta — Graph

°F

Lappeenranta Temperature Yesterday

Maximum temperature yesterday: 57 °F (at 3:20 PM)
Minimum temperature yesterday: 48 °F (at 1:50 AM)
Average temperature yesterday: 52 °F

High & Low Weather Summary for the Past Weeks

 TemperatureHumidityPressure
High63 °F (Sep 26, 2:20 PM)100% (Sep 18, 10:50 PM)30.33 "Hg (Sep 18, 10:50 PM)
Low36 °F (Sep 18, 10:50 PM)55% (Sep 19, 3:20 PM)29.09 "Hg (Sep 30, 7:50 AM)
Average50 °F85%30.02 "Hg
* Reported Sep 15 1:20 PM — Sep 30 1:20 PM, Lappeenranta, Weather by CustomWeather, © 2016

Note: Actual official high and low records may vary slightly from our data, if they occured in-between our weather recording intervals... More about our weather records

Advertising

Lappeenranta Weather History for the Previous 24 Hours

Scroll right to see more
 ConditionsComfort  
Time TempWeatherWind HumidityBarometerVisibility
1:20 PM
Fri, Sep 30
54 °FSprinkles. Broken clouds.17 mph82%29.15 "HgN/A
12:50 PM55 °FBroken clouds.17 mph77%29.12 "HgN/A
12:20 PM54 °FPartly sunny.17 mph82%29.12 "HgN/A
11:50 AM52 °FPartly sunny.12 mph94%29.12 "HgN/A
11:20 AM52 °FLight rain. Partly sunny.16 mph88%29.09 "HgN/A
10:50 AM55 °FPartly sunny.16 mph77%29.09 "HgN/A
10:20 AM54 °FBroken clouds.12 mph88%29.09 "HgN/A
9:50 AM54 °FScattered clouds.10 mph88%29.09 "HgN/A
9:20 AM52 °FScattered clouds.10 mph88%29.09 "HgN/A
8:50 AM52 °FScattered clouds.8 mph94%29.09 "HgN/A
8:20 AM52 °FScattered clouds.8 mph88%29.09 "HgN/A
7:50 AM52 °FScattered clouds.9 mph94%29.09 "HgN/A
7:20 AM52 °FPartly sunny.7 mph94%29.12 "HgN/A
6:50 AM52 °FPassing clouds.6 mph94%29.12 "HgN/A
6:20 AM52 °FPassing clouds.9 mph94%29.12 "HgN/A
5:50 AM54 °FPassing clouds.9 mph88%29.12 "HgN/A
5:20 AM54 °FPassing clouds.9 mph94%29.15 "HgN/A
4:50 AM54 °FPassing clouds.10 mph94%29.15 "HgN/A
4:20 AM52 °FPassing clouds.8 mph94%29.15 "HgN/A
3:50 AM54 °FPassing clouds.13 mph88%29.15 "HgN/A
3:20 AM54 °FLots of rain. Partly cloudy.17 mph88%29.15 "Hg3 mi
2:50 AM55 °FSprinkles. Partly cloudy.10 mph100%29.15 "HgN/A
2:20 AM55 °FSprinkles. Partly cloudy.10 mph94%29.15 "HgN/A
1:50 AM55 °FSprinkles. Partly cloudy.12 mph100%29.15 "HgN/A
1:20 AM55 °FRain. Passing clouds.8 mph100%29.18 "HgN/A
12:50 AM55 °FRain. Passing clouds.9 mph100%29.21 "HgN/A
12:20 AM55 °FRain. Partly cloudy.8 mph94%29.18 "HgN/A
11:50 PM
Thu, Sep 29
54 °FHeavy rain. Overcast.9 mph100%29.24 "Hg5 mi
11:20 PM54 °FRain. Passing clouds.10 mph100%29.24 "Hg6 mi
10:50 PM54 °FLight rain. Passing clouds.12 mph100%29.27 "Hg4 mi
10:20 PM54 °FLight rain. Passing clouds.12 mph100%29.27 "Hg2 mi
9:50 PM54 °FSprinkles. Passing clouds.12 mph94%29.30 "Hg4 mi
9:20 PM54 °FPartly cloudy.12 mph94%29.33 "Hg5 mi
8:50 PM54 °FSprinkles. Partly cloudy.12 mph94%29.36 "Hg4 mi
8:20 PM54 °FSprinkles. Partly cloudy.10 mph100%29.39 "HgN/A
7:50 PM54 °FSprinkles. Passing clouds.10 mph100%29.42 "Hg6 mi
7:20 PM54 °FSprinkles. Partly cloudy.10 mph100%29.42 "HgN/A
6:50 PM54 °FMostly cloudy.8 mph94%29.45 "HgN/A
6:20 PM55 °FMostly cloudy.8 mph88%29.47 "HgN/A
5:50 PM55 °FMostly cloudy.7 mph88%29.50 "HgN/A
5:20 PM55 °FBroken clouds.6 mph88%29.50 "HgN/A
4:50 PM55 °FPartly sunny.7 mph88%29.53 "HgN/A
4:20 PM55 °FBroken clouds.6 mph88%29.53 "HgN/A
3:50 PM55 °FScattered clouds.6 mph82%29.53 "HgN/A
3:20 PM57 °FPartly sunny.6 mph82%29.56 "HgN/A
2:50 PM55 °FScattered clouds.6 mph82%29.56 "HgN/A
2:20 PM55 °FScattered clouds.5 mph88%29.56 "HgN/A
Weather by CustomWeather, © 2016

See weather overviewHow to use our weather pages